AirNav   Phillips 66 Aviation Fuel
 
 661 users online  

7D8 Gates Airport
Garrettsville, Ohio, USA

GOING TO GARRETTSVILLE?


FAA INFORMATION EFFECTIVE 20 JUNE 2019

Location

FAA Identifier: 7D8
Lat/Long: 41-21-04.1970N / 081-05-58.3490W
41-21.069950N / 081-05.972483W
41.3511658 / -81.0995414
(estimated)
Elevation: 1110 ft. / 338 m (estimated)
Variation: 07W (1985)
From city: 4 miles N of GARRETTSVILLE, OH
Time zone: UTC -4 (UTC -5 during Standard Time)
Zip code: 44231

Airport Operations

Airport use: Open to the public
Activation date: 06/1967
Control tower: no
ARTCC: CLEVELAND CENTER
FSS: CLEVELAND FLIGHT SERVICE STATION
NOTAMs facility: CLE (NOTAM-D service available)
Attendance: APR-NOV IREG
PPR NOV THRU APR CTC AMGR CLEVELANDDZ@YAHOO.COM.
Wind indicator: yes
Segmented circle: no

Airport Communications

CTAF: 122.9
WX AWOS-3 at POV (11 nm SW): 118.675 (330-298-9353)
WX AWOS-2 at 1G3 (19 nm SW): 119.15
WX ASOS at YNG (20 nm E): PHONE 330-856-9357

Nearby radio navigation aids

VOR radial/distance  VOR name  Freq  Var
CXRr169/10.3CHARDON VOR/DME112.7005W
ACOr021/15.3AKRON VOR/DME114.4004W
YNGr279/19.2YOUNGSTOWN VORTAC109.0005W
JFNr218/29.2JEFFERSON VOR/DME115.2005W
BSVr026/39.6BRIGGS VOR/DME112.4004W

 
NDB name  Hdg/Dist  Freq  Var  ID
LAKELAND156/23.526308WLQL .-.. --.- .-..
CASTLE312/36.627209WUCP ..- -.-. .--.

Airport Services

Runway Information

Runway 8/26

Dimensions: 2800 x 100 ft. / 853 x 30 m
Surface: turf, in fair condition
RUNWAY 8  RUNWAY 26
Latitude: 41-21.021833N41-21.117667N
Longitude: 081-06.271667W081-05.673000W
Elevation: 1110.0 ft.1110.0 ft.
Traffic pattern: leftleft
Markings: nonenone
Runway end identifier lights: nono
Obstructions: 25 ft. tree, 113 ft. right of centerline51 ft. trees, 75 ft. right of centerline

Airport Ownership and Management from official FAA records

Ownership: Privately-owned
Owner: CLEVELAND PARACHUTE CENTER
15199 GROVE RD
GARRETTSVILLE, OH 44231
Phone (216) 789-9882
Manager: ROBERT D. GATES
8049 FRENCH STREET
GARRETTSVILLE, OH 44231
Phone (216) 789-9882

Airport Operational Statistics

Aircraft based on the field: 1
Single engine airplanes: 1
    
Aircraft operations: avg 80/week *
95% local general aviation
5% transient general aviation
* for 12-month period ending 27 September 2018

Additional Remarks

SKYDIVING ACTIVITY.
RWY DROPS 10' ON EAST END.
RY 26 HAS 16 FT HILL/BRUSH STARTING 0 FT FM RY APCH END.
FOR CD CTC CLEVELAND APCH AT 216-352-2323

Instrument Procedures

There are no published instrument procedures at 7D8.

Some nearby airports with instrument procedures:

7G8 - Geauga County Airport (6 nm N)
KPOV - Portage County Airport (11 nm SW)
1G3 - Kent State University Airport (19 nm SW)
2G1 - Concord Airpark (19 nm N)
KYNG - Youngstown-Warren Regional Airport (20 nm E)
 
Loc | Ops | Rwys | IFR | FBO | Links
Com | Nav | Svcs | Stats | Notes
Area around 7D8 (Gates Airport)
 
Road maps at: MapQuest Bing Google
 
Aerial photo
WARNING: Photo may not be current or correct
Aerial photo of 7D8 (Gates Airport)
Do you have a better or more recent aerial photo of Gates Airport that you would like to share? If so, please send us your photo.

 
Sectional chart

 
Airport distance calculator
Flying to Gates Airport? Find the distance to fly.

From to 7D8

Sunrise and sunset
Times for 27-Jun-2019
 Local
(UTC-4)
 Zulu
(UTC)
Morning civil twilight05:2009:20
Sunrise05:5409:54
Sunset21:0101:01
Evening civil twilight21:3501:35

Current date and time
Zulu (UTC)  27-Jun-2019 11:31:28
Local (UTC-4)  27-Jun-2019 07:31:28
 
METAR
KPOV 
11nm SW 
271118Z AUTO 00000KT 10SM SCT075 SCT085 19/17 A3020 RMK AO2 T01900170 PWINO
KYNG 
20nm E 
271051Z 00000KT 10SM FEW065 SCT080 OVC250 18/16 A3019 RMK AO2 SLP216 T01830161
KCGF 
21nm NW 
271045Z 00000KT 20SM SCT055 BKN080 18/17 A3019
TAF
KYNG 
20nm E 
270520Z 2706/2806 21005KT P6SM SCT250
NOTAMs
Click for the latest NOTAMs
NOTAMs are issued by the DoD/FAA and will open in a separate window not controlled by AirNav.

 

 
 

Would you like to see your business listed on this page?

 If your business provides an interesting product or service to pilots, flight crews, aircraft, or users of the Gates Airport, you should consider listing it here.  To start the listing process, click on the button below
 
Add a business
 

Other Pages about Gates Airport

Update a link
 
Copyright © AirNav, LLC. All rights reserved. Privacy Policy  Contact